User: anonymous   Login
Location: Hamburg
(53.5500°N, 10.0000°E)
Time: 01:27:06
(UTC+02:00)
Language:

Iridium 10 - Orbit

View from above orbital plane
View from above orbital plane
View from above satellite
View from above satellite

Ground track
Ground track

The orbit data is extracted from the following two-line orbital elements,

1 24839U 97030D   15245.58158490 +.00000007 +00000-0 -46435-5 0  9997
2 24839 086.3921 263.2630 0002264 087.7813 024.7339 14.34217329953244
Epoch (UTC): 02 September 2015 13:57:28
Eccentricity: 0.0002264
inclination: 86.3921°
perigee height: 776 km
apogee height: 779 km
right ascension of ascending node: 263.2630°
argument of perigee: 87.7813°
revolutions per day: 14.34217329
mean anomaly at epoch: 24.7339°
orbit number at epoch: 95324

The dashed part of the orbit path shows where the satellite is in the earth's shadow,  

DLR